Location: Newark
(36.3167°N, 139.0000°E)
Time: 13:27:26
(UTC+00:00)

ISS - Visible Passes

Search period start: 23 October 2019 00:00
Search period end: 02 November 2019 00:00
Orbit: 411 x 421 km, 51.6° (Epoch: 23 October)

Date Brightness Start Highest point End Pass type
(mag) Time Alt. Az. Time Alt. Az. Time Alt. Az.
23 Oct -1.1 19:28:16 10° S 19:30:43 19° SE 19:33:11 10° E visible
24 Oct -0.5 18:42:00 10° SE 18:42:22 10° SE 18:42:43 10° ESE visible
24 Oct -3.8 20:15:19 10° SW 20:18:39 67° NW 20:22:01 10° NE visible
25 Oct -3.4 19:29:09 40° SSW 19:30:06 62° SE 19:33:27 10° NE visible
26 Oct -1.0 18:43:17 20° E 18:43:17 20° E 18:44:39 10° ENE visible
26 Oct -2.5 20:16:14 14° W 20:18:22 25° NNW 20:21:12 10° NNE visible
27 Oct -2.9 19:30:11 37° NNW 19:30:11 37° NNW 19:32:53 10° NE visible
28 Oct -0.7 18:43:58 13° NE 18:43:58 13° NE 18:44:24 10° NE visible
28 Oct -1.5 20:16:53 11° NW 20:18:15 13° NNW 20:19:52 10° N visible
29 Oct -1.5 19:30:32 16° N 19:30:32 16° N 19:31:49 10° NNE visible
